IA5ITY-13 Weather Reports


Display with metric or nautical units.
time (UTC)temp
F
wind
direction
speed
MPH
gust
MPH
rain 1hr
in
rain 24hr
in
rain mn
in
humidity
%
barometer
mb
20260508033509 64 76 1.0 1.0 0.00 0.00 0.00 51 1009.4
20260508033023 63 116 0.0 0.0 0.00 0.00 0.00 54 1009.4
20260508032509 64 147 0.0 0.0 0.00 0.00 0.00 47 1009.3
20260508032014 64 58 0.0 0.0 0.00 0.00 0.00 47 1009.3
20260508031512 63 81 0.0 0.0 0.00 0.00 0.00 43 1009.4
20260508031013 64 80 0.0 0.0 0.00 0.00 0.00 40 1009.4
20260508030509 64 53 0.0 0.0 0.00 0.00 0.00 38 1009.4
20260508030032 63 91 1.0 1.0 0.00 0.00 0.00 40 1009.4
20260508025509 63 86 0.0 0.0 0.00 0.00 0.00 40 1009.3
20260508025013 63 56 1.0 2.0 0.00 0.00 0.00 42 1009.4
20260508024512 63 55 0.0 0.0 0.00 0.00 0.00 41 1009.4
20260508024012 63 71 0.0 0.0 0.00 0.00 0.00 40 1009.5
20260508023509 64 90 0.0 0.0 0.00 0.00 0.00 40 1009.5
20260508023022 64 61 0.0 0.0 0.00 0.00 0.00 36 1009.5
20260508022509 64 22 0.0 0.0 0.00 0.00 0.00 35 1009.5
20260508022013 66 45 0.0 0.0 0.00 0.00 0.00 35 1009.5
20260508021512 66 50 0.0 0.0 0.00 0.00 0.00 33 1009.5
20260508021013 66 62 0.0 0.0 0.00 0.00 0.00 36 1009.5
20260508020509 66 41 0.0 0.0 0.00 0.00 0.00 34 1009.5
20260508020032 66 33 0.0 0.0 0.00 0.00 0.00 34 1009.5
20260508015509 64 38 0.0 0.0 0.00 0.00 0.00 36 1009.5
20260508015012 64 40 1.0 1.0 0.00 0.00 0.00 37 1009.5
20260508014513 63 90 0.0 0.0 0.00 0.00 0.00 39 1009.5
20260508014013 63 73 0.0 0.0 0.00 0.00 0.00 39 1009.6
20260508013509 63 7 0.0 0.0 0.00 0.00 0.00 40 1009.6
20260508013022 63 68 0.0 0.0 0.00 0.00 0.00 41 1009.6
20260508012510 63 50 0.0 0.0 0.00 0.00 0.00 42 1009.7
20260508012014 63 22 0.0 0.0 0.00 0.00 0.00 44 1009.8
20260508011512 63 76 0.0 0.0 0.00 0.00 0.00 47 1009.8
20260508011014 61 56 0.0 0.0 0.00 0.00 0.00 53 1009.9
20260508010509 59 76 0.0 0.0 0.00 0.00 0.00 60 1010.0
20260508010032 59 55 0.0 0.0 0.00 0.00 0.00 61 1010.0
20260508005509 57 46 0.0 0.0 0.00 0.00 0.00 66 1010.1
20260508005013 57 56 1.0 1.0 0.00 0.00 0.00 69 1010.2
20260508004513 57 57 0.0 0.0 0.00 0.00 0.00 65 1010.2
20260508004012 57 57 0.0 0.0 0.00 0.00 0.00 64 1010.3
20260508003509 57 48 0.0 0.0 0.00 0.00 0.00 65 1010.4
20260508003023 57 43 0.0 0.0 0.00 0.00 0.00 63 1010.4
20260508002510 59 30 0.0 0.0 0.00 0.00 0.00 60 1010.4
20260508002013 57 45 0.0 0.0 0.00 0.00 0.00 62 1010.5
20260508001518 57 53 0.0 0.0 0.00 0.00 0.00 63 1010.6
20260508000509 57 60 0.0 0.0 0.00 0.00 0.00 61 1010.8
20260508000035 57 35 1.0 1.0 0.00 0.00 0.00 62 1010.9
20260507235510 57 52 1.0 1.0 0.00 0.00 0.00 63 1010.9
20260507235014 57 47 0.0 0.0 0.00 0.00 0.00 62 1011.0
20260507234512 57 67 0.0 0.0 0.00 0.00 0.00 61 1011.1
20260507234014 57 67 0.0 0.0 0.00 0.00 0.00 66 1011.0
20260507233509 55 50 0.0 0.0 0.00 0.00 0.00 66 1011.1
20260507233022 55 41 0.0 0.0 0.00 0.00 0.00 66 1011.1
20260507232509 57 53 0.0 0.0 0.00 0.00 0.00 65 1011.2
20260507232012 57 51 0.0 0.0 0.00 0.00 0.00 64 1011.3
20260507231513 57 64 0.0 0.0 0.00 0.00 0.00 64 1011.4
20260507231013 57 47 0.0 0.0 0.00 0.00 0.00 63 1011.4
20260507230510 55 59 0.0 0.0 0.00 0.00 0.00 65 1011.5
20260507230032 55 29 0.0 0.0 0.00 0.00 0.00 65 1011.6
20260507225510 55 69 0.0 0.0 0.00 0.00 0.00 66 1011.6
20260507225013 55 50 0.0 0.0 0.00 0.00 0.00 68 1011.6
20260507224512 57 25 0.0 0.0 0.00 0.00 0.00 65 1011.7
20260507224013 57 50 0.0 0.0 0.00 0.00 0.00 65 1011.7
20260507223509 55 47 0.0 0.0 0.00 0.00 0.00 67 1011.7
20260507223024 57 49 1.0 1.0 0.00 0.00 0.00 65 1011.7
20260507222509 57 64 0.0 0.0 0.00 0.00 0.00 66 1011.7
20260507222013 55 41 0.0 0.0 0.00 0.00 0.00 67 1011.7
20260507221513 57 42 0.0 0.0 0.00 0.00 0.00 66 1011.7
20260507221015 57 41 0.0 0.0 0.00 0.00 0.00 66 1011.7
20260507220510 57 37 0.0 0.0 0.00 0.00 0.00 66 1011.7
20260507220034 57 48 0.0 0.0 0.00 0.00 0.00 67 1011.7
20260507215510 57 47 0.0 0.0 0.00 0.00 0.00 67 1011.7
20260507215013 57 61 0.0 0.0 0.00 0.00 0.00 64 1011.7
20260507214514 57 37 0.0 0.0 0.00 0.00 0.00 64 1011.8
20260507214014 57 56 0.0 0.0 0.00 0.00 0.00 65 1011.8
20260507213510 57 44 0.0 0.0 0.00 0.00 0.00 67 1011.7
20260507213025 57 57 0.0 0.0 0.00 0.00 0.00 65 1011.7
20260507212509 57 54 0.0 0.0 0.00 0.00 0.00 63 1011.7
20260507211513 57 55 0.0 0.0 0.00 0.00 0.00 67 1011.8
20260507211014 57 53 0.0 0.0 0.00 0.00 0.00 65 1011.8
20260507210510 57 62 0.0 0.0 0.00 0.00 0.00 64 1011.8
20260507210033 57 61 0.0 0.0 0.00 0.00 0.00 65 1011.8
20260507205014 57 45 0.0 0.0 0.00 0.00 0.00 65 1011.8
20260507204513 57 45 0.0 0.0 0.00 0.00 0.00 65 1011.8
20260507204015 57 58 2.0 2.0 0.00 0.00 0.00 64 1011.8
20260507203510 57 75 1.0 1.0 0.00 0.00 0.00 65 1011.7
20260507203023 57 50 0.0 0.0 0.00 0.00 0.00 66 1011.7
20260507202509 57 41 1.0 2.0 0.00 0.00 0.00 64 1011.7
20260507202014 57 50 0.0 0.0 0.00 0.00 0.00 66 1011.7
20260507201513 57 69 1.0 1.0 0.00 0.00 0.00 66 1011.7
20260507201013 57 59 0.0 0.0 0.00 0.00 0.00 67 1011.6
20260507195509 57 59 0.0 0.0 0.00 0.00 0.00 69 1011.5
20260507194512 57 48 0.0 0.0 0.00 0.00 0.00 68 1011.5
20260507194014 57 65 0.0 0.0 0.00 0.00 0.00 70 1011.4
20260507193510 57 66 1.0 1.0 0.00 0.00 0.00 71 1011.4
20260507193024 57 62 0.0 0.0 0.00 0.00 0.00 72 1011.4
20260507192510 59 54 2.0 2.0 0.00 0.00 0.00 72 1011.4
20260507192014 59 61 1.0 1.0 0.00 0.00 0.00 71 1011.4
20260507191513 59 64 0.0 0.0 0.00 0.00 0.00 71 1011.3
20260507191015 59 59 0.0 0.0 0.00 0.00 0.00 77 1011.3
20260507190510 59 47 0.0 0.0 0.00 0.00 0.00 77 1011.2
20260507190034 59 52 1.0 1.0 0.00 0.00 0.00 77 1011.1
20260507185509 59 65 0.0 0.0 0.00 0.00 0.00 75 1011.2
20260507185014 59 55 0.0 0.0 0.00 0.00 0.00 74 1011.3
20260507184013 61 58 1.0 1.0 0.00 0.00 0.00 73 1011.4
20260507183510 61 58 0.0 0.0 0.00 0.00 0.00 74 1011.5
20260507183024 61 22 0.0 0.0 0.00 0.00 0.00 78 1011.5
20260507182509 61 39 0.0 0.0 0.00 0.00 0.00 80 1011.5
20260507182015 61 45 2.0 2.0 0.00 0.00 0.00 83 1011.5
20260507181513 63 51 1.0 1.0 0.00 0.00 0.00 87 1011.5
20260507181014 63 63 0.0 0.0 0.00 0.00 0.00 87 1011.6
20260507180510 63 64 0.0 0.0 0.00 0.00 0.00 86 1011.6
20260507180032 63 89 1.0 1.0 0.00 0.00 0.00 84 1011.6
20260507175509 63 44 0.0 0.0 0.00 0.00 0.00 82 1011.5
20260507174514 64 87 0.0 0.0 0.00 0.00 0.00 78 1011.6
20260507174013 66 85 2.0 7.0 0.00 0.00 0.00 75 1011.6
20260507173510 66 228 4.0 5.0 0.00 0.00 0.00 74 1011.7
20260507173025 66 114 2.0 2.0 0.00 0.00 0.00 72 1011.7
20260507172013 66 308 2.0 3.0 0.00 0.00 0.00 71 1011.6
20260507171513 66 159 0.0 0.0 0.00 0.00 0.00 71 1011.7
20260507171013 68 129 2.0 2.0 0.00 0.00 0.00 69 1011.6
20260507170510 66 232 0.0 0.0 0.00 0.00 0.00 71 1011.6
20260507170034 70 173 4.0 4.0 0.00 0.00 0.00 65 1011.6
20260507165510 68 187 0.0 0.0 0.00 0.00 0.00 70 1011.6
20260507165013 68 158 0.0 0.0 0.00 0.00 0.00 69 1011.6
20260507164513 68 149 0.0 0.0 0.00 0.00 0.00 74 1011.5
20260507164013 68 137 0.0 0.0 0.00 0.00 0.00 70 1011.5
20260507163510 68 176 0.0 0.0 0.00 0.00 0.00 69 1011.6
20260507163024 70 199 0.0 0.0 0.00 0.00 0.00 64 1011.6
20260507162509 70 183 0.0 0.0 0.00 0.00 0.00 65 1011.6
20260507162013 68 232 3.0 3.0 0.00 0.00 0.00 66 1011.5
20260507161513 70 177 0.0 0.0 0.00 0.00 0.00 63 1011.5
20260507161013 70 126 1.0 1.0 0.00 0.00 0.00 61 1011.6
20260507160510 70 190 0.0 0.0 0.00 0.00 0.00 63 1011.6
20260507160034 70 187 0.0 0.0 0.00 0.00 0.00 63 1011.5
20260507155013 70 157 0.0 0.0 0.00 0.00 0.00 67 1011.4
20260507154515 70 176 0.0 0.0 0.00 0.00 0.00 71 1011.5
20260507154014 70 193 0.0 0.0 0.00 0.00 0.00 71 1011.7
20260507153510 70 130 0.0 0.0 0.00 0.00 0.00 73 1011.7
20260507153024 70 184 0.0 0.0 0.00 0.00 0.00 71 1011.7
20260507152509 70 176 0.0 0.0 0.00 0.00 0.00 72 1011.7
20260507152013 70 162 2.0 2.0 0.00 0.00 0.00 70 1011.7
20260507151513 70 144 0.0 0.0 0.00 0.00 0.00 70 1011.7
20260507151014 70 137 0.0 0.0 0.00 0.00 0.00 68 1011.6
20260507150510 70 185 0.0 0.0 0.00 0.00 0.00 67 1011.6
20260507150033 70 145 0.0 0.0 0.00 0.00 0.00 67 1011.6
20260507145510 70 210 0.0 0.0 0.00 0.00 0.00 66 1011.7
20260507145013 72 188 0.0 0.0 0.00 0.00 0.00 67 1011.7
20260507144513 70 120 0.0 0.0 0.00 0.00 0.00 65 1011.8
20260507144015 70 147 1.0 2.0 0.00 0.00 0.00 66 1011.9
20260507143510 72 179 1.0 4.0 0.00 0.00 0.00 65 1011.9
20260507143026 70 125 1.0 1.0 0.00 0.00 0.00 66 1012.0
20260507142509 70 189 0.0 0.0 0.00 0.00 0.00 65 1011.9
20260507142013 72 230 0.0 0.0 0.00 0.00 0.00 67 1011.9
20260507141514 72 245 0.0 0.0 0.00 0.00 0.00 64 1012.0
20260507141013 72 142 0.0 0.0 0.00 0.00 0.00 61 1011.9
20260507140509 72 131 0.0 0.0 0.00 0.00 0.00 59 1012.0
20260507140032 72 158 0.0 0.0 0.00 0.00 0.00 59 1012.0
20260507135510 72 194 0.0 0.0 0.00 0.00 0.00 61 1012.0
20260507135016 72 221 0.0 0.0 0.00 0.00 0.00 63 1012.1
20260507134013 70 211 0.0 0.0 0.00 0.00 0.00 59 1012.1
20260507133510 72 135 0.0 0.0 0.00 0.00 0.00 60 1012.2
20260507133023 70 199 0.0 0.0 0.00 0.00 0.00 65 1012.2
20260507132510 70 175 0.0 0.0 0.00 0.00 0.00 65 1012.3
20260507131513 70 113 0.0 0.0 0.00 0.00 0.00 65 1012.5
20260507131014 72 189 0.0 0.0 0.00 0.00 0.00 64 1012.6
20260507130510 72 171 2.0 5.0 0.00 0.00 0.00 66 1012.6
20260507130033 72 228 2.0 2.0 0.00 0.00 0.00 66 1012.7
20260507125510 70 161 1.0 1.0 0.00 0.00 0.00 67 1012.7
20260507125014 70 149 0.0 0.0 0.00 0.00 0.00 66 1012.8
20260507124513 70 213 2.0 4.0 0.00 0.00 0.00 68 1012.9
20260507124013 70 186 0.0 0.0 0.00 0.00 0.00 67 1012.9
20260507123509 70 201 1.0 2.0 0.00 0.00 0.00 67 1012.9
20260507123024 70 225 0.0 0.0 0.00 0.00 0.00 66 1012.9
20260507122510 72 227 0.0 0.0 0.00 0.00 0.00 63 1012.9
20260507122013 72 165 0.0 0.0 0.00 0.00 0.00 62 1013.0
20260507121513 72 162 0.0 0.0 0.00 0.00 0.00 63 1012.9
20260507121014 70 167 0.0 0.0 0.00 0.00 0.00 63 1012.9
20260507120510 72 206 1.0 1.0 0.00 0.00 0.00 62 1012.8
20260507120033 70 111 0.0 0.0 0.00 0.00 0.00 62 1012.8
20260507115509 73 178 0.0 0.0 0.00 0.00 0.00 63 1012.8
20260507114513 72 167 0.0 0.0 0.00 0.00 0.00 63 1012.8
20260507114014 72 173 3.0 3.0 0.00 0.00 0.00 64 1012.8
20260507113510 70 197 6.0 7.0 0.00 0.00 0.00 65 1012.8
20260507113024 70 229 9.0 9.0 0.00 0.00 0.00 65 1012.8
20260507112509 70 101 1.0 1.0 0.00 0.00 0.00 66 1012.8
20260507112013 70 226 1.0 1.0 0.00 0.00 0.00 67 1012.9
20260507111513 70 197 2.0 2.0 0.00 0.00 0.00 67 1012.9
20260507111013 70 128 1.0 1.0 0.00 0.00 0.00 70 1013.0
20260507110509 70 148 0.0 0.0 0.00 0.00 0.00 68 1013.0
20260507110032 70 182 2.0 2.0 0.00 0.00 0.00 67 1013.1
20260507105509 70 136 1.0 1.0 0.00 0.00 0.00 68 1013.2
20260507105013 70 164 1.0 1.0 0.00 0.00 0.00 70 1013.3
20260507104512 70 130 0.0 0.0 0.00 0.00 0.00 70 1013.3
20260507104014 68 153 0.0 0.0 0.00 0.00 0.00 76 1013.3
20260507103510 68 130 0.0 0.0 0.00 0.00 0.00 76 1013.3
20260507103025 68 119 0.0 0.0 0.00 0.00 0.00 71 1013.3
20260507102510 70 142 0.0 0.0 0.00 0.00 0.00 71 1013.4
20260507102013 68 187 0.0 0.0 0.00 0.00 0.00 77 1013.4
20260507101513 68 196 1.0 1.0 0.00 0.00 0.00 77 1013.3
20260507101014 68 162 0.0 0.0 0.00 0.00 0.00 74 1013.3
20260507100509 70 146 0.0 0.0 0.00 0.00 0.00 73 1013.3
20260507100031 68 207 0.0 0.0 0.00 0.00 0.00 76 1013.3
20260507095509 68 119 0.0 0.0 0.00 0.00 0.00 74 1013.3
20260507095013 68 126 0.0 0.0 0.00 0.00 0.00 81 1013.3
20260507094513 66 159 0.0 0.0 0.00 0.00 0.00 79 1013.3
20260507094014 68 119 0.0 0.0 0.00 0.00 0.00 77 1013.3
20260507093509 66 210 0.0 0.0 0.00 0.00 0.00 77 1013.2
20260507093023 66 154 0.0 0.0 0.00 0.00 0.00 76 1013.2
20260507092509 66 186 0.0 0.0 0.00 0.00 0.00 75 1013.1
20260507092013 68 124 0.0 0.0 0.00 0.00 0.00 72 1013.0
20260507091513 68 148 0.0 0.0 0.00 0.00 0.00 68 1013.0
20260507091013 70 250 0.0 0.0 0.00 0.00 0.00 72 1012.9
20260507090509 66 139 0.0 0.0 0.00 0.00 0.00 73 1012.8
20260507090032 66 172 0.0 0.0 0.00 0.00 0.00 73 1012.9
20260507085508 68 169 0.0 0.0 0.00 0.00 0.00 70 1012.7
20260507085013 68 185 0.0 0.0 0.00 0.00 0.00 68 1012.7
20260507084513 68 165 0.0 0.0 0.00 0.00 0.00 66 1012.7
20260507084013 70 122 0.0 0.0 0.00 0.00 0.00 62 1012.6
20260507083509 70 117 0.0 0.0 0.00 0.00 0.00 57 1012.6
20260507083022 70 127 0.0 0.0 0.00 0.00 0.00 56 1012.6
20260507082509 70 123 0.0 0.0 0.00 0.00 0.00 55 1012.7
20260507082013 70 131 0.0 0.0 0.00 0.00 0.00 57 1012.8
20260507081514 68 124 0.0 0.0 0.00 0.00 0.00 58 1012.9
20260507081013 70 109 0.0 0.0 0.00 0.00 0.00 58 1012.9
20260507080509 68 150 0.0 0.0 0.00 0.00 0.00 59 1012.8
20260507080031 68 154 0.0 0.0 0.00 0.00 0.00 60 1012.8
20260507075509 68 127 1.0 4.0 0.00 0.00 0.00 61 1012.7
20260507075013 70 138 1.0 1.0 0.00 0.00 0.00 58 1012.8
20260507074513 70 127 2.0 9.0 0.00 0.00 0.00 58 1012.8
20260507074013 70 133 2.0 5.0 0.00 0.00 0.00 58 1012.9
20260507073509 68 129 4.0 6.0 0.00 0.00 0.00 60 1012.8
20260507073024 68 167 2.0 2.0 0.00 0.00 0.00 60 1012.8
20260507072509 70 140 1.0 1.0 0.00 0.00 0.00 59 1012.9
20260507072014 72 113 1.0 2.0 0.00 0.00 0.00 58 1013.0
20260507071513 70 141 1.0 1.0 0.00 0.00 0.00 57 1013.1
20260507071014 72 90 0.0 0.0 0.00 0.00 0.00 58 1013.1
20260507070510 72 95 0.0 0.0 0.00 0.00 0.00 58 1012.9
20260507070033 72 92 0.0 0.0 0.00 0.00 0.00 60 1012.9
20260507065511 72 84 0.0 0.0 0.00 0.00 0.00 63 1012.8
20260507065014 72 82 0.0 0.0 0.00 0.00 0.00 63 1012.8
20260507064514 70 87 0.0 0.0 0.00 0.00 0.00 65 1012.7
20260507064014 70 90 0.0 0.0 0.00 0.00 0.00 70 1012.6
20260507063509 70 107 0.0 0.0 0.00 0.00 0.00 73 1012.6
20260507063023 70 91 0.0 0.0 0.00 0.00 0.00 82 1012.5
20260507062510 68 92 0.0 0.0 0.00 0.00 0.00 88 1012.5
20260507062013 66 85 0.0 0.0 0.00 0.00 0.00 86 1012.5
20260507061512 68 94 0.0 0.0 0.00 0.00 0.00 90 1012.5
20260507060510 64 67 0.0 0.0 0.00 0.00 0.00 94 1012.4
20260507060034 64 67 0.0 0.0 0.00 0.00 0.00 94 1012.4
20260507055509 64 66 0.0 0.0 0.00 0.00 0.00 94 1012.3
20260507055014 64 68 0.0 0.0 0.00 0.00 0.00 99 1012.3
20260507054514 63 68 1.0 4.0 0.00 0.00 0.00 96 1012.2
20260507054013 63 33 3.0 4.0 0.00 0.00 0.00 99 1012.2
20260507053510 63 43 0.0 0.0 0.00 0.00 0.00 99 1012.2
20260507052510 61 60 0.0 0.0 0.00 0.00 0.00 99 1012.1
20260507052013 57 51 0.0 0.0 0.00 0.00 0.00 99 1012.0
20260507051513 57 49 0.0 0.0 0.00 0.00 0.00 99 1012.0
20260507051014 57 69 0.0 0.0 0.00 0.00 0.00 99 1011.9
20260507050510 57 50 0.0 0.0 0.00 0.00 0.00 99 1011.8
20260507050031 57 37 5.0 5.0 0.00 0.00 0.00 99 1011.8
20260507045509 55 43 3.0 3.0 0.00 0.00 0.00 99 1011.7
20260507045013 57 59 2.0 4.0 0.00 0.00 0.00 99 1011.6
20260507044513 57 44 4.0 4.0 0.00 0.00 0.00 99 1011.6
20260507044013 57 40 0.0 0.0 0.00 0.00 0.00 99 1011.6
20260507043509 55 48 1.0 1.0 0.00 0.00 0.00 99 1011.6
20260507043023 55 53 0.0 0.0 0.00 0.00 0.00 99 1011.6
20260507042509 55 42 0.0 0.0 0.00 0.00 0.00 99 1011.6
20260507042013 55 36 0.0 0.0 0.00 0.00 0.00 99 1011.6
20260507041513 55 52 0.0 0.0 0.00 0.00 0.00 99 1011.5
20260507041013 55 72 0.0 0.0 0.00 0.00 0.00 99 1011.5
20260507040509 55 68 2.0 4.0 0.00 0.00 0.00 99 1011.4
20260507040032 55 56 4.0 4.0 0.00 0.00 0.00 99 1011.4
20260507035509 55 51 2.0 2.0 0.00 0.00 0.00 99 1011.4
20260507035013 55 51 1.0 1.0 0.00 0.00 0.00 99 1011.5
20260507034014 55 44 1.0 2.0 0.00 0.00 0.00 99 1011.4